This demonstration page uses our WeatherBlox Daily Observations layout. Learn more.

Left ArrowRight Arrow

47.50024, -111.30081

Hourly Observations for May 10, 2022

Temp ( °F °C ) Dew Point ( °F °C ) Humidity (%) Winds ( mph kmh ) Pressure ( in mb ) Visibility ( mi km ) Precip ( " mm )
12:53 am 00:53 Partly Cloudy 36 2.2 22 -5.6 57 57 SW 10 17 29.83 1010 10 16 0.00 0.00
1:53 am 01:53 Mostly Cloudy 38 3.3 23 -5 55 55 SW 13 20 29.83 1010 10 16 0.00 0.00
2:53 am 02:53 Mostly Clear 37 2.8 23 -5 57 57 SW 12 19 29.84 1011 10 16 0.00 0.00
3:53 am 03:53 Clear 37 2.8 23 -5 57 57 SW 13 20 29.85 1011 10 16 0.00 0.00
4:53 am 04:53 Clear 37 2.8 22 -5.6 54 54 SW 16 26 29.87 1011 10 16 0.00 0.00
5:53 am 05:53 Clear 34 1.1 22 -5.6 61 61 SSW 14 22 29.89 1012 10 16 0.00 0.00
6:53 am 06:53 Sunny 37 2.8 22 -5.6 54 54 SW 16 26 29.90 1013 10 16 0.00 0.00
7:53 am 07:53 Sunny 42 5.6 23 -5 47 47 SW 22 35 29.92 1013 10 16 0.00 0.00
8:53 am 08:53 Sunny 46 7.8 21 -6.1 37 37 SW 23 37 29.95 1014 10 16 0.00 0.00
9:53 am 09:53 Sunny 48 8.9 21 -6.1 34 34 WSW 17 28 29.97 1015 10 16 0.00 0.00
10:53 am 10:53 Sunny 51 10.6 22 -5.6 32 32 SW 18 30 29.96 1014 10 16 0.00 0.00
11:53 am 11:53 Sunny 52 11.1 19 -7.2 27 27 SW 18 30 29.96 1015 10 16 0.00 0.00
12:53 pm 12:53 Partly Cloudy 54 12.2 20 -6.7 26 26 WSW 16 26 29.95 1014 10 16 0.00 0.00
1:53 pm 13:53 Mostly Cloudy 53 11.7 18 -7.8 25 25 W 15 24 29.94 1014 10 16 0.00 0.00
2:22 pm 14:22 Partly Cloudy 57 13.9 18 -7.8 22 22 SW 17 28 29.82 1010 10 16 0.00 0.00
2:53 pm 14:53 Mostly Sunny 57 13.9 19 -7.2 23 23 WSW 14 22 29.94 1014 10 16 0.00 0.00
3:53 pm 15:53 Partly Cloudy 58 14.4 16 -8.9 19 19 WSW 12 19 29.95 1014 10 16 0.00 0.00
4:53 pm 16:53 Mostly Sunny 54 12.2 14 -10 20 20 WSW 8 13 29.96 1015 10 16 0.00 0.00
5:53 pm 17:53 Mostly Sunny 56 13.3 12 -11.1 17 17 WNW 10 17 29.98 1015 10 16 0.00 0.00
6:53 pm 18:53 Sunny 56 13.3 13 -10.6 18 18 WSW 13 20 29.99 1016 10 16 0.00 0.00
7:53 pm 19:53 Sunny 53 11.7 13 -10.6 20 20 WSW 12 19 30.01 1016 10 16 0.00 0.00
8:53 pm 20:53 Mostly Clear 42 5.6 16 -8.9 35 35 WSW 8 13 30.06 1018 10 16 0.00 0.00
9:53 pm 21:53 Cloudy 45 7.2 17 -8.3 33 33 NW 6 9 30.09 1019 10 16 0.00 0.00
10:53 pm 22:53 Clear 39 3.9 18 -7.8 43 43 SSW 3 6 30.13 1020 10 16 0.00 0.00
11:53 pm 23:53 Clear 35 1.7 17 -8.3 48 48 WSW 5 7 30.14 1021 10 16 0.00 0.00

Powered by AerisWeather